Location: Newark
(48.5156°N, 1.8989°W)
Time: 08:39:31
(UTC+00:00)

Vanguard 3 - Visible Passes

Search period start: 22 November 2019 00:00
Search period end: 02 December 2019 00:00
Orbit: 507 x 3263 km, 33.4° (Epoch: 21 November)

Date Brightness Start Highest point End Pass type
(mag) Time Alt. Az. Time Alt. Az. Time Alt. Az.
22 Nov 10.7 17:30:56 10° W 17:47:08 37° SSW 17:58:45 10° SE visible
22 Nov 10.9 19:50:47 10° WSW 19:58:25 15° SW 20:04:37 10° SSW visible
23 Nov 10.8 18:31:14 10° W 18:44:28 26° SW 18:54:20 10° S visible
24 Nov 10.9 17:13:19 10° W 17:29:44 36° SSW 17:42:08 10° SSE visible
24 Nov 11.1 19:33:46 10° WSW 19:41:08 14° SW 19:47:21 10° SSW visible
25 Nov 11.0 18:13:46 10° W 18:27:04 25° SW 18:37:27 10° S visible
26 Nov 11.1 16:55:51 10° W 17:12:15 35° SSW 17:25:18 10° SSE visible
26 Nov 11.3 19:17:02 10° WSW 19:23:45 13° SW 19:29:39 10° SSW visible
27 Nov 11.2 17:56:27 10° W 18:09:35 23° SW 18:20:19 10° S visible
28 Nov 11.2 16:38:31 10° W 16:54:39 33° SSW 17:08:17 10° SSE visible
28 Nov 11.5 19:00:48 10° WSW 19:06:17 12° SW 19:11:18 10° SW visible
29 Nov 11.4 17:39:19 10° W 17:52:01 22° SW 18:02:55 10° S visible
30 Nov 11.4 16:21:20 10° W 16:37:01 31° SW 16:51:01 10° SSE visible
30 Nov 11.8 18:45:52 10° WSW 18:48:45 11° SW 18:51:31 10° SW visible
01 Dec 11.7 17:22:26 10° W 17:34:23 20° SW 17:45:10 10° S visible
